Regional Weather Roundup
Issued by NWS

Home | Current Version | Previous Version | Graphics & Text | Print | Product List | Glossary On
Versions: 1 2 3 4 5 6 7 8 9 10 11 12 13 14 15 16 17 18 19 20 21 22 23 24 25 26 27 28
000
ASUS45 KBOU 160307
RWRCO

WEATHER ROUNDUP FOR COLORADO
NATIONAL WEATHER SERVICE DENVER/BOULDER CO
900 PM MDT TUE AUG 15 2017

NOTE: "FAIR" INDICATES FEW OR NO CLOUDS BELOW 12000 FEET WITH NO
SIGNIFICANT WEATHER AND/OR OBSTRUCTIONS TO VISIBILITY.

COZ001>005-013-030-031-160400-
...NORTHWEST COLORADO...

CITY           SKY/WX    TMP DP  RH WIND       PRES   REMARKS
CRAIG          FAIR      52  47  83 S10       30.13S
HAYDEN         CLOUDY    54  48  82 CALM      30.18R
MEEKER         FAIR      54  48  80 CALM      30.15R
RABBIT EARS PA RAIN      39  39 100 W10G22    30.33R
STEAMBOAT SPGS CLOUDY    52  49  90 E5        30.17F
WALDEN         FAIR      46  41  81 S6        30.23R
$$

COZ006>008-011-160400-
...WEST CENTRAL VALLEYS...

CITY           SKY/WX    TMP DP  RH WIND       PRES   REMARKS
GRAND JUNCTION MOCLDY    75  34  22 NW3       29.97R
MONTROSE       FAIR      69  33  26 S9        30.06R
EAGLE          FAIR      66  38  35 NW14G21   30.12R
RIFLE          CLOUDY    68  44  42 N8        30.04R
DELTA          NOT AVBL
NUCLA          FAIR      68  28  22 SW6       30.11R
$$

COZ017>023-064>068-160400-
...SOUTHWEST COLORADO...

CITY           SKY/WX    TMP DP  RH WIND       PRES   REMARKS
DURANGO        CLOUDY    65  27  23 W10       30.13R
CORTEZ         FAIR      63  39  41 SE5       30.08R
PAGOSA SPRINGS FAIR      60  26  27 CALM      30.19R
TELLURIDE      CLOUDY    57  29  34 W3        30.30R
WOLF CREEK PAS FAIR      39  27  60 SW10G16   30.47S
$$

COZ009-010-012-014-032>034-037-058>063-160400-
...CENTRAL COLORADO...

CITY           SKY/WX    TMP DP  RH WIND       PRES   REMARKS
ASPEN          FAIR      61  28  28 VRB3      30.16R
BUENA VISTA    FAIR      63  26  24 W8        30.16R
COPPER MTN     CLOUDY    46  19  34 NW15      30.43R
BERTHOUD PASS  CLOUDY    34  32  93 NW22      30.43R WCI  22
COTTONWOOD PAS CLOUDY    59  21  23 W10G23    30.28R
GUNNISON       FAIR      56  37  49 VRB3      30.17R
KREMMLING      FAIR      61  43  51 N9G18     30.21R
LEADVILLE      CLOUDY    51  23  33 VRB6      30.28R
MONARCH PASS   FAIR      43  28  56 W26G33    30.50S
SALIDA         FAIR      67  30  25 W8        30.19R
SUNLIGHT       MOCLDY    45  30  57 W7        30.38R
WILKERSON PASS CLOUDY    50  23  34 W9        30.39R
$$

COZ069>075-160400-
...SAN LUIS VALLEY/SANGRE DE CRISTO MOUNTAINS...

CITY           SKY/WX    TMP DP  RH WIND       PRES   REMARKS
ALAMOSA        FAIR      61  35  37 NW5       30.11R
DEL NORTE      FAIR      62  31  31 W14G22    30.16R
LA VETA PASS   NOT AVBL
SAGUACHE       FAIR      59  34  38 NW8       30.16R
$$

COZ035-036-038>040-160400-
...NORTHERN COLORADO FRONT RANGE...

CITY           SKY/WX    TMP DP  RH WIND       PRES   REMARKS
DENVER INTL AP MOCLDY    57  52  83 N15G29    30.02R
DMNS CITY PARK   N/A     60  50  70 E8G21     30.04R
AURORA         MOCLDY    58  51  78 NE16G25   30.05R
FRONT RANGE AP LGT RAIN  59  54  82 N16G32    30.05R
ERIE MUNI ARPT CLOUDY    60  53  78 CALM      30.06R
BOULDER MUN AP MOCLDY    61  54  77 CALM      30.03R
CENTENNIAL     LGT RAIN  61  51  70 NE15G23   30.04R
BROOMFIELD     MOCLDY    59  54  82 CALM      30.06R
FORT COLLINS   RAIN      60  53  77 NE14      30.02R
LONGMONT       FAIR      61  55  82 NW10G17   30.02R
$$

COZ041-046-047-076>085-087-088-160400-
...PIKES PEAK/PALMER DIVIDE AND SOUTHERN FOOTHILLS...

CITY           SKY/WX    TMP DP  RH WIND       PRES   REMARKS
COLO. SPRINGS  FAIR      67  47  48 E9        30.02R
A. F. ACADEMY  FAIR      65  49  55 W5        30.04R
SCHRIEVER AFB  FAIR      61  49  63 NE8       30.01R
CHEYENNE MTN   MOCLDY    66  41  41 NW9       30.02R
ELLICOTT       FAIR     N/A N/A N/A E10       29.98S
FALCON         FAIR      61  46  56 NE5       30.06S
FORT CARSON    CLEAR     66  47  50 NE7       29.99R
LIMON          FAIR      68  51  54 CALM      29.95R
MONUMENT HILL  CLOUDY    59  50  72 N12G18    30.11R
CANON CITY     MOCLDY    77  48  36 N15       29.95R
WALSENBURG     FAIR      66  37  34 S9        29.98R
TRINIDAD       FAIR      64  54  69 N3        29.97R
$$

COZ042>045-048>051-090-091-160400-
...NORTHEAST COLORADO...

CITY           SKY/WX    TMP DP  RH WIND       PRES   REMARKS
GREELEY ARPT   LGT RAIN  59  55  87 NE9       30.04R
AKRON          FAIR      59  54  83 NW12      29.93R
BURLINGTON     FAIR      70  63  78 SE5       29.86
WRAY           NOT AVBL
YUMA           FAIR      66  43  42 N16G24    29.87F
STERLING       DRIZZLE   64  57  77 NW15G21   29.89R
HOLYOKE        TSTM      63  59  88 N23G33    29.89R
FORT MORGAN    FAIR      61  52  72 NW22G28   29.98R
$$

COZ086-089-092>099-160400-
...SOUTHEAST COLORADO...

CITY           SKY/WX    TMP DP  RH WIND       PRES   REMARKS
PUEBLO         FAIR      72  51  47 NE15G25   29.87R
LA JUNTA       FAIR      73  52  47 N12       29.86
LAMAR          FAIR      70  56  61 NW6       29.78
SPRINGFIELD      N/A     68  57  68 SW6       29.86S
$$




USA.gov is the U.S. government's official web portal to all federal, state and local government web resources and services.